Shreveport, LA

10:47 AM CST on February 06, 2016 (GMT -0600)
Barksdale Air Force Base

Weather History for KBAD - February, 2013

Change the Weather History Date:

Tuesday, February 12, 2013

  Actual Average (KSHV) Record (KSHV)
Temperature  
Mean Temperature 48 °F 50 °F  
Max Temperature 50 °F 61 °F 82 °F (1962)
Min Temperature 45 °F 39 °F -5 °F (1899)
Degree Days  
Heating Degree Days 18 15  
Month to date heating degree days 196  
Since 1 July heating degree days 1668  
Cooling Degree Days 0 0  
Month to date cooling degree days 0  
Year to date cooling degree days 4  
Moisture  
Dew Point 47 °F    
Average Humidity 98    
Maximum Humidity 100    
Minimum Humidity 87    
Precipitation  
Precipitation 0.23 in 0.18 in 2.97 in (1984)
Month to date precipitation 2.03  
Year to date precipitation 6.23  
Snow  
Snow 0.00 in - - ()
Month to date snowfall  
Since 1 July snowfall  
Snow Depth -    
Sea Level Pressure  
Sea Level Pressure 29.92 in    
Wind  
Wind Speed 8 mph (NNE)    
Max Wind Speed 26 mph    
Max Gust Speed 31 mph    
Visibility 9 miles    
Events Rain , Thunderstorm    
T = Trace of Precipitation, MM = Missing Value Source: NWS Daily Summary

Daily Weather History Graph

Daily Weather History Graph

Search for Another Location

Airport or City:

Trip Planner

Search our weather history database for the weather conditions in past years. The results will help you decide how hot, cold, wet, or windy it might be!

Date:

Astronomy

Feb. 12, 2013 Rise Set
Actual Time 7:00 AM CST 5:58 PM CST
Civil Twilight 6:34 AM CST 6:23 PM CST
Nautical Twilight 6:05 AM CST 6:52 PM CST
Astronomical Twilight 5:37 AM CST 7:20 PM CST
Moon 8:09 AM CST (2/12) 8:45 PM CST (2/12)
Length of Visible Light 11h 48m
Length of Day
10h 58m
Waxing Crescent, 7% of the Moon is Illuminated
Feb 12
Waxing Crescent
Feb 17
First Quarter
Feb 25
Full
Mar 4
Last Quarter
Mar 11
New

Hourly Weather History & Observations

Time (CST) Temp. Windchill Dew Point Humidity Pressure Visibility Wind Dir Wind Speed Gust Speed Precip Events Conditions
12:40 AM 50.0 °F - 46.4 °F 87% 30.08 in - East 5.8 mph - N/A Rain Light Rain
12:58 AM 48.9 °F - 46.6 °F 92% 30.06 in 10.0 mi ENE 8.1 mph - 0.01 in Rain Light Rain
1:04 AM 48.2 °F - 46.4 °F 93% 30.04 in 10.0 mi ENE 6.9 mph - N/A   Mostly Cloudy
1:58 AM 47.3 °F - 45.1 °F 92% 30.02 in 10.0 mi NE 5.8 mph - 0.00 in   Partly Cloudy
2:58 AM 45.9 °F 43.6 °F 44.8 °F 96% 30.02 in 10.0 mi NE 4.6 mph - N/A   Scattered Clouds
3:58 AM 46.8 °F - 45.3 °F 95% 29.98 in 10.0 mi NE 6.9 mph - N/A   Mostly Cloudy
4:58 AM 47.3 °F - 46.4 °F 97% 29.98 in 10.0 mi NE 5.8 mph - N/A   Scattered Clouds
5:29 AM 48.2 °F - 46.4 °F 93% 29.94 in 6.0 mi East 9.2 mph - N/A Rain Light Rain
5:44 AM 48.2 °F - 48.2 °F 100% 29.95 in 10.0 mi Variable 4.6 mph - N/A   Mostly Cloudy
5:58 AM 48.2 °F - 47.7 °F 98% 29.97 in - NE 8.1 mph - 0.00 in Rain Light Rain
6:04 AM 48.2 °F - 48.2 °F 100% 29.95 in 6.0 mi NNE 8.1 mph - N/A Rain Light Rain
6:54 AM 48.2 °F - 48.2 °F 100% 29.97 in 10.0 mi NW 12.7 mph - N/A   Overcast
6:58 AM 48.4 °F - 48.0 °F 99% 29.98 in 6.0 mi NNW 10.4 mph - 0.03 in Rain Light Rain
6:59 AM 48.2 °F - 48.2 °F 100% 29.96 in 10.0 mi North 8.1 mph - N/A   Overcast
7:00 AM 48.2 °F - 48.2 °F 100% 29.95 in 10.0 mi North 9.2 mph - N/A Rain Light Rain
7:30 AM 48.2 °F - 48.2 °F 100% 29.89 in 8.0 mi ENE 11.5 mph - N/A Rain , Thunderstorm Light Rain
7:50 AM 48.2 °F - 48.2 °F 100% 30.03 in 10.0 mi WNW 26.5 mph - N/A Rain , Thunderstorm Light Thunderstorms and Rain
7:58 AM 48.7 °F - 48.4 °F 99% 29.97 in 10.0 mi North 15.0 mph 31.1 mph 0.04 in Rain , Thunderstorm Light Thunderstorms and Rain
7:59 AM 48.2 °F - 48.2 °F 100% 29.98 in 10.0 mi North 12.7 mph 31.1 mph N/A Rain , Thunderstorm Light Rain
8:03 AM 48.2 °F - 48.2 °F 100% 29.95 in 10.0 mi North 17.3 mph - N/A Rain Light Rain
8:13 AM 48.2 °F - 48.2 °F 100% 29.93 in 10.0 mi ENE 12.7 mph - N/A Rain Light Rain
8:43 AM 48.2 °F - 48.2 °F 100% 29.91 in 8.0 mi East 11.5 mph - N/A Rain Light Rain
8:58 AM 48.9 °F - 47.8 °F 96% 29.93 in 10.0 mi ENE 12.7 mph 18.4 mph 0.03 in Rain Light Rain
9:03 AM 48.2 °F - 48.2 °F 100% 29.93 in 10.0 mi NNE 10.4 mph - N/A   Light Drizzle
9:58 AM 48.7 °F - 47.5 °F 95% 29.91 in 10.0 mi ENE 11.5 mph - 0.01 in Rain Light Rain
10:13 AM 48.2 °F - 46.4 °F 93% 29.90 in 10.0 mi ENE 10.4 mph - N/A Rain Light Rain
10:58 AM 48.6 °F - 47.1 °F 95% 29.92 in 10.0 mi NE 8.1 mph - 0.02 in Rain Light Rain
11:58 AM 48.0 °F - 47.7 °F 99% 29.90 in 2.0 mi ENE 8.1 mph - 0.06 in Rain Heavy Rain
12:06 PM 48.2 °F - 48.2 °F 100% 29.90 in 4.0 mi East 6.9 mph - N/A Rain Light Rain
12:26 PM 48.2 °F - 48.2 °F 100% 29.88 in 10.0 mi ENE 8.1 mph - N/A   Overcast
12:41 PM 48.2 °F - 46.4 °F 93% 29.87 in 10.0 mi East 8.1 mph - N/A   Overcast
12:58 PM 48.4 °F - 46.9 °F 95% 29.88 in 10.0 mi ENE 5.8 mph - 0.02 in   Overcast
1:24 PM 48.2 °F - 46.4 °F 93% 29.88 in 10.0 mi NE 4.6 mph - N/A Rain Light Rain
1:39 PM 48.2 °F - 46.4 °F 93% 29.87 in 1.5 mi NNE 8.1 mph - N/A Rain Light Rain
1:54 PM 48.2 °F - 46.4 °F 93% 29.85 in 4.0 mi NE 9.2 mph - N/A Rain Light Rain
1:58 PM 47.5 °F - 47.3 °F 99% 29.86 in 4.0 mi ENE 10.4 mph - 0.01 in Rain Light Rain
2:08 PM 48.2 °F - 48.2 °F 100% 29.85 in 6.0 mi ENE 8.1 mph - N/A   Overcast
2:55 PM 47.8 °F - 46.6 °F 95% 29.86 in 10.0 mi ENE 5.8 mph - 0.00 in   Overcast
3:58 PM 47.7 °F - 45.9 °F 93% 29.84 in 10.0 mi ENE 6.9 mph - N/A   Overcast
4:58 PM 47.5 °F - 45.9 °F 94% 29.85 in 10.0 mi NE 3.5 mph - N/A   Overcast
5:28 PM 48.2 °F - 46.4 °F 93% 29.85 in 10.0 mi ENE 1.2 mph - N/A   Overcast
5:58 PM 47.1 °F - 46.8 °F 99% 29.86 in 10.0 mi Calm Calm - N/A   Overcast
6:43 PM 46.4 °F - 46.4 °F 100% 29.83 in 10.0 mi ENE 2.3 mph - N/A   Overcast
6:45 PM 46.4 °F - 46.4 °F 100% 29.84 in 10.0 mi ENE 2.3 mph - N/A   Overcast
6:58 PM 46.4 °F - 46.4 °F 100% 29.86 in 10.0 mi NE 1.2 mph - N/A   Overcast
7:13 PM 46.4 °F - 46.4 °F 100% 29.86 in 10.0 mi Calm Calm - N/A   Overcast
7:58 PM 46.9 °F - 46.8 °F 99% 29.90 in 10.0 mi NNW 4.6 mph - N/A   Overcast
8:02 PM 46.4 °F 43.5 °F 46.4 °F 100% 29.89 in 10.0 mi NNW 5.8 mph - N/A   Light Drizzle
8:17 PM 46.4 °F 45.2 °F 46.4 °F 100% 29.89 in 9.0 mi NW 3.5 mph - N/A   Light Drizzle
8:25 PM 46.4 °F 45.2 °F 46.4 °F 100% 29.88 in 10.0 mi NNW 3.5 mph - N/A   Overcast
8:40 PM 46.4 °F 44.3 °F 46.4 °F 100% 29.88 in 10.0 mi North 4.6 mph - N/A   Overcast
8:58 PM 46.9 °F - 46.9 °F 100% 29.90 in 10.0 mi North 4.6 mph - 0.00 in   Overcast
9:13 PM 46.4 °F 45.2 °F 46.4 °F 100% 29.90 in 10.0 mi North 3.5 mph - N/A   Overcast
9:43 PM 46.4 °F 45.2 °F 46.4 °F 100% 29.90 in 10.0 mi NW 3.5 mph - N/A   Overcast
9:58 PM 46.4 °F 45.2 °F 46.4 °F 100% 29.92 in 10.0 mi NW 3.5 mph - N/A   Overcast
10:13 PM 46.4 °F 45.2 °F 46.4 °F 100% 29.91 in 10.0 mi NW 3.5 mph - N/A   Overcast
10:58 PM 47.3 °F - 47.1 °F 99% 29.92 in 10.0 mi WNW 5.8 mph - N/A   Overcast
11:43 PM 46.4 °F 42.4 °F 46.4 °F 100% 29.90 in 10.0 mi WNW 8.1 mph - N/A   Overcast
11:58 PM 47.3 °F - 47.1 °F 99% 29.92 in 10.0 mi WNW 9.2 mph - N/A   Overcast